[[{"header":{"parameterUnit":"m.s-1","parameterCategory":1,"la1":30.2991,"la2":30.254,"lo1":-89.0895,"lo2":-89.0444,"dy":0.0017,"dx":0.0017,"nx":28,"ny":28,"refTime":"2024-06-15T21:00:00:Z","depth":0,"parameterNumber":2,"parameterNumberName":"U-component_of_WINDS"},"data":[0,0,0,0,0,0,0,0,0,0,0,0,0,0,0,0,0,0,0,0,0,0,0,0,0,0,0,0,0,0,0,0,0,0,0,0,0,0,0,0,0,0,0,0,0,0,0,0,0,0,0,0,0,0,0,0,0,0,-3.3888,-3.3888,0,-3.3929,-3.3929,-3.393,-3.3882,-3.388,-3.3878,-3.3877,-3.3917,-3.3919,-3.3922,0,0,0,0,0,0,0,0,0,0,0,0,0,-3.3764,-3.3767,-3.3888,-3.3888,-3.3889,-3.3929,-3.3929,-3.393,-3.3882,-3.388,-3.3878,-3.3876,-3.3916,-3.3919,-3.3922,0,0,0,0,0,0,0,0,0,0,0,0,0,-3.3813,-3.3768,-3.3887,-3.387,-3.3869,-3.3929,-3.3929,-3.393,-3.3883,-3.388,-3.3877,-3.3875,-3.3915,-3.3919,-3.3923,-3.4002,0,0,-3.3935,-3.3937,0,0,0,0,0,0,0,0,-3.381,-3.3817,-3.3872,-3.3871,-3.387,-3.3898,-3.3901,-3.3954,-3.3883,-3.3877,-3.3877,-3.3874,-3.3912,-3.3916,-3.393,-3.4004,-3.4005,-3.3936,-3.3938,-3.394,-3.3941,0,0,0,0,0,0,0,-3.3807,-3.3815,-3.3904,-3.3873,-3.3871,-3.3859,-3.3863,-3.3911,-3.3909,-3.3878,-3.3874,-3.388,-3.3911,-3.3926,-3.3931,-3.4006,-3.3936,-3.3939,-3.3942,-3.3943,-3.4144,-3.4147,0,0,0,0,0,0,-3.3806,-3.3813,-3.3902,-3.3905,-3.3833,-3.3863,-3.3868,-3.3891,-3.3909,-3.3909,-3.3882,-3.3878,-3.3921,-3.3926,-3.3932,-3.4023,-3.394,-3.3944,-3.3946,-3.4142,-3.4145,-3.4148,0,0,0,0,0,0,-3.3803,-3.3814,-3.3901,-3.3858,-3.3868,-3.3868,-3.3895,-3.3894,-3.3908,-3.3912,-3.3911,-3.3898,-3.3919,-3.3926,-3.3984,-3.4024,-3.3946,-3.3949,-3.4138,-3.4143,-3.4147,-3.4209,0,0,0,0,0,0,-3.38,-3.3814,-3.3844,-3.3859,-3.3871,-3.3954,-3.3898,-3.3896,-3.3916,-3.391,-3.3927,-3.3927,-3.3917,-3.3979,-3.3989,-3.4028,-3.3952,-3.4134,-3.414,-3.4145,-3.4203,-3.4215,-3.4225,0,0,0,0,0,-3.3796,-3.386,-3.3846,-3.3857,-3.3909,-3.3956,-3.3962,-3.3951,-3.3919,-3.3949,-3.3952,-3.3926,-3.4019,-3.3985,-3.3996,-3.4038,-3.4132,-3.4139,-3.4145,-3.4198,-3.4212,-3.4224,0,0,0,0,0,0,-3.3849,-3.3862,-3.3846,-3.3918,-3.3936,-3.3948,-3.3985,-3.3967,-3.3994,-3.3987,-3.3971,-3.3975,-3.4037,-3.4043,-3.4005,-3.4114,-3.407,-3.4079,-3.4107,-3.412,-3.4131,-3.4127,-3.3956,0,0,0,0,0,-3.387,-3.3908,-3.3916,-3.3978,-3.3988,-3.3986,-3.4006,-3.3995,-3.4013,-3.4021,-3.4027,-3.4045,-3.4078,-3.41,-3.4131,-3.4205,-3.4206,-3.4239,-3.425,-3.4258,-3.4265,-3.4303,-3.4317,-3.4169,-3.4169,-3.4169,0,0,-3.3911,-3.3923,-3.3948,-3.3989,-3.4002,-3.4041,-3.3992,-3.4035,-3.4063,-3.4027,-3.4082,-3.4088,-3.4107,-3.4173,-3.4202,-3.418,-3.4307,-3.4267,-3.4274,-3.4276,-3.4311,-3.4325,-3.4337,-3.4174,-3.4173,-3.4172,0,0,-3.4006,-3.402,-3.4072,-3.4087,-3.4107,-3.4105,-3.4118,-3.4133,-3.4135,-3.419,-3.4163,-3.4196,-3.4254,-3.4268,-3.4283,-3.4383,-3.436,-3.4394,-3.4449,-3.4486,-3.4497,-3.4507,-3.4541,-3.4553,-3.4402,-3.4402,-3.4402,0,-3.4055,-3.4113,-3.4101,-3.4146,-3.4164,-3.4134,-3.4186,-3.42,-3.423,-3.4242,-3.4218,-3.4289,-3.43,-3.4367,-3.4392,-3.4406,-3.4418,-3.4391,-3.4497,-3.4507,-3.4516,-3.4548,-3.4561,-3.4406,-3.4405,-3.4405,-3.4404,0,-3.417,-3.4211,-3.425,-3.428,-3.4303,-3.4351,-3.4345,-3.437,-3.4358,-3.4358,-3.4414,-3.4426,-3.4458,-3.4474,-3.4463,-3.454,-3.4525,-3.45,-3.4454,-3.4534,-3.4563,-3.4576,-3.4411,-3.441,-3.4409,-3.4408,0,0,-3.4299,-3.4321,-3.4336,-3.4348,-3.4369,-3.4399,-3.4446,-3.4478,-3.4498,-3.452,-3.4557,-3.4607,-3.4582,-3.4599,-3.4589,-3.4622,-3.4698,-3.4592,-3.4592,-3.4609,-3.4781,-3.4799,-3.4813,-3.4684,-3.4686,-3.4688,-3.4779,0,-3.4392,-3.4472,-3.4463,-3.4539,-3.4575,-3.4548,-3.4588,-3.4605,-3.4606,-3.4636,-3.4638,-3.4672,-3.4639,-3.4649,-3.468,-3.4682,-3.4732,-3.4676,-3.4716,-3.4718,-3.4709,-3.4829,-3.4848,-3.4933,-3.4791,-3.4793,-3.4794,0,-3.4511,-3.4537,-3.4617,-3.4631,-3.4646,-3.4682,-3.471,-3.474,-3.4758,-3.4756,-3.4775,-3.476,-3.4805,-3.4761,-3.4822,-3.4784,-3.48,-3.4804,-3.4807,-3.4808,-3.4759,-3.483,-3.496,-3.4971,-3.4813,-3.4811,-3.481,0,-3.4593,-3.4649,-3.4703,-3.4715,-3.4733,-3.4759,-3.4768,-3.4783,-3.4803,-3.4827,-3.4839,-3.4869,-3.4884,-3.4907,-3.4899,-3.4868,-3.4961,-3.4917,-3.4959,-3.4959,-3.4977,-3.4976,-3.5108,-3.4993,-3.4993,-3.4993,-3.4992,0,-3.4697,-3.4746,-3.474,-3.4773,-3.4827,-3.4816,-3.487,-3.4875,-3.4889,-3.4922,-3.4901,-3.4932,-3.4921,-3.4951,-3.4946,-3.4996,-3.5004,-3.5002,-3.5,-3.5003,-3.5003,-3.5011,-3.5004,-3.4996,-3.4995,-3.4995,-3.4994,0,-3.4796,-3.4795,-3.4851,-3.4865,-3.4869,-3.4908,-3.4919,-3.4949,-3.495,-3.4992,-3.5001,-3.5001,-3.5036,-3.5031,-3.5069,-3.5066,-3.5127,-3.5119,-3.5121,-3.5118,-3.5159,-3.5154,-3.5299,-3.5317,-3.5193,-3.5194,-3.5195,0,-3.4861,-3.4898,-3.4916,-3.4936,-3.4947,-3.4981,-3.5,-3.4991,-3.5012,-3.5035,-3.5063,-3.5096,-3.5121,-3.5177,-3.518,-3.5209,-3.52,-3.5249,-3.5204,-3.5205,-3.5197,-3.5194,-3.5197,-3.5257,-3.5258,-3.5259,-3.526,0,-3.4975,-3.4973,-3.5002,-3.5031,-3.5055,-3.5078,-3.5098,-3.5116,-3.5108,-3.5133,-3.5168,-3.5188,-3.5227,-3.5259,-3.5287,-3.5295,-3.5276,-3.5275,-3.5285,-3.5287,-3.5286,-3.5285,-3.5142,-3.5271,-3.527,-3.5269,-3.5268,-3.5268,-3.5058,-3.5089,-3.5105,-3.5139,-3.5153,-3.5172,-3.5201,-3.5205,-3.5234,-3.5266,-3.5259,-3.5298,-3.5314,-3.5349,-3.536,-3.539,-3.5372,-3.5388,-3.5392,-3.5395,-3.5399,-3.5284,-3.5395,-3.5395,-3.5395,-3.5394,-3.5394,0,-3.5169,-3.5178,-3.5209,-3.5238,-3.5263,-3.5245,-3.5266,-3.5288,-3.5323,-3.534,-3.5366,-3.5406,-3.5437,-3.5443,-3.5472,-3.5494,-3.5486,-3.5502,-3.5499,-3.5501,-3.5415,-3.5401,-3.5508,-3.5508,-3.5508,-3.5508,-3.5508,-3.5508,-3.5229,-3.528,-3.5279,-3.5337,-3.5346,-3.5384,-3.5397,-3.5414,-3.5428,-3.5473,-3.5499,-3.5503,-3.5515,-3.5545,-3.5572,-3.5573,-3.5584,-3.5602,-3.56,-3.5518,-3.5507,-3.5496,-3.5483,-3.5605,-3.5606,-3.5683,-3.5683,-3.5684]},{"header":{"parameterUnit":"m.s-1","parameterCategory":1,"la1":30.2991,"la2":30.254,"lo1":-89.0895,"lo2":-89.0444,"dy":0.0017,"dx":0.0017,"nx":28,"ny":28,"refTime":"2024-06-15T21:00:00:Z","depth":0,"parameterNumber":3,"parameterNumberName":"V-component_of_WINDS"},"data":[0,0,0,0,0,0,0,0,0,0,0,0,0,0,0,0,0,0,0,0,0,0,0,0,0,0,0,0,0,0,0,0,0,0,0,0,0,0,0,0,0,0,0,0,0,0,0,0,0,0,0,0,0,0,0,0,0,0,2.4608,2.4609,0,2.4664,2.4664,2.4665,2.464,2.4639,2.4637,2.4636,2.469,2.4692,2.4695,0,0,0,0,0,0,0,0,0,0,0,0,0,2.4477,2.4479,2.4608,2.4609,2.4609,2.4664,2.4664,2.4665,2.464,2.4639,2.4637,2.4635,2.4689,2.4692,2.4695,0,0,0,0,0,0,0,0,0,0,0,0,0,2.4533,2.448,2.4608,2.4604,2.4604,2.4664,2.4664,2.4665,2.4641,2.4639,2.4637,2.4635,2.4688,2.4692,2.4696,2.4762,0,0,2.4708,2.471,0,0,0,0,0,0,0,0,2.453,2.4538,2.4603,2.4604,2.4604,2.4643,2.4638,2.4698,2.4641,2.4627,2.4636,2.4634,2.4676,2.468,2.4695,2.4764,2.4766,2.4708,2.4711,2.4713,2.4714,0,0,0,0,0,0,0,2.4526,2.4535,2.463,2.4604,2.4605,2.4598,2.4604,2.4649,2.4662,2.4628,2.4626,2.4633,2.4675,2.4691,2.4696,2.4767,2.4708,2.4712,2.4714,2.4716,2.4893,2.4895,0,0,0,0,0,0,2.4523,2.4532,2.4628,2.4632,2.4561,2.4602,2.4608,2.4633,2.4661,2.4664,2.4635,2.4632,2.4686,2.4692,2.4698,2.4777,2.4713,2.4716,2.4719,2.4891,2.4893,2.4896,0,0,0,0,0,0,2.452,2.4531,2.4626,2.4582,2.4593,2.4606,2.4634,2.4635,2.4651,2.4667,2.4668,2.4649,2.4684,2.4692,2.4746,2.4778,2.4718,2.4722,2.4888,2.4892,2.4895,2.4935,0,0,0,0,0,0,2.4516,2.4531,2.4556,2.4582,2.4596,2.4674,2.4636,2.4637,2.4658,2.4655,2.4681,2.4683,2.4683,2.474,2.475,2.4783,2.4725,2.4885,2.489,2.4894,2.4931,2.494,2.4947,0,0,0,0,0,2.4512,2.4565,2.4558,2.457,2.4628,2.4676,2.4683,2.4684,2.4661,2.4687,2.4697,2.4682,2.4774,2.4746,2.4757,2.4791,2.4883,2.4888,2.4893,2.4928,2.4938,2.4947,0,0,0,0,0,0,2.4541,2.4568,2.4561,2.4624,2.4648,2.4672,2.4704,2.4695,2.4724,2.472,2.4718,2.4724,2.478,2.4791,2.476,2.4857,2.4825,2.4832,2.4847,2.4857,2.4865,2.486,2.4728,0,0,0,0,0,2.4555,2.4592,2.4614,2.4668,2.468,2.469,2.4711,2.4709,2.4734,2.4743,2.4757,2.478,2.4814,2.4837,2.4869,2.4933,2.4938,2.4962,2.497,2.4977,2.4983,2.5017,2.5028,2.4913,2.4913,2.4913,0,0,2.4584,2.4603,2.4627,2.4674,2.4692,2.473,2.4699,2.474,2.4768,2.4749,2.4801,2.4812,2.4838,2.4897,2.4924,2.4908,2.5016,2.4983,2.4988,2.4991,2.5024,2.5034,2.5044,2.4916,2.4916,2.4915,0,0,2.4655,2.4675,2.4721,2.4741,2.477,2.4776,2.4788,2.4813,2.482,2.4873,2.486,2.4892,2.4951,2.497,2.4987,2.5067,2.5054,2.5078,2.5119,2.5152,2.5161,2.5169,2.5197,2.5207,2.5084,2.5084,2.5084,0,2.4687,2.4745,2.4746,2.4789,2.481,2.4797,2.4843,2.4862,2.4899,2.4913,2.4896,2.497,2.4986,2.5049,2.5069,2.5084,2.5096,2.5074,2.516,2.5168,2.5176,2.5202,2.5213,2.5087,2.5087,2.5086,2.5086,0,2.4782,2.4822,2.4856,2.4894,2.4919,2.4964,2.4971,2.4996,2.4993,2.5001,2.5054,2.5074,2.511,2.5125,2.5121,2.5188,2.5177,2.516,2.5128,2.5189,2.5214,2.5224,2.5091,2.509,2.5089,2.5088,0,0,2.4871,2.4911,2.4923,2.4941,2.4972,2.5003,2.5046,2.5083,2.5104,2.5131,2.5166,2.5217,2.5202,2.5222,2.522,2.525,2.5312,2.5229,2.523,2.5243,2.5385,2.5397,2.5409,2.5304,2.5306,2.5308,2.5383,0,2.4945,2.5023,2.5026,2.5097,2.5133,2.5122,2.516,2.5183,2.5192,2.5224,2.5233,2.5269,2.5247,2.5258,2.5288,2.5298,2.534,2.5293,2.5336,2.5338,2.5329,2.5422,2.5434,2.5504,2.5393,2.5394,2.5396,0,2.504,2.5071,2.5146,2.5172,2.5188,2.5222,2.5256,2.5287,2.5313,2.5317,2.534,2.5335,2.5379,2.5347,2.5407,2.5374,2.5393,2.5401,2.5403,2.5406,2.5369,2.5426,2.5526,2.5536,2.5411,2.541,2.5409,0,2.5097,2.5157,2.521,2.5225,2.5257,2.5282,2.5296,2.532,2.5342,2.5372,2.5385,2.5419,2.5438,2.5464,2.5467,2.5444,2.5527,2.5495,2.5531,2.5531,2.5548,2.5546,2.5651,2.5562,2.5562,2.5562,2.5562,0,2.5177,2.5223,2.5236,2.5268,2.5319,2.5322,2.5372,2.5384,2.5406,2.544,2.5432,2.5463,2.5467,2.55,2.5503,2.5552,2.556,2.5564,2.5564,2.5564,2.5564,2.5575,2.557,2.5565,2.5564,2.5563,2.5563,0,2.5248,2.5259,2.5315,2.5342,2.535,2.5386,2.5409,2.5439,2.5448,2.5491,2.5501,2.5515,2.5552,2.5559,2.5604,2.5606,2.5664,2.566,2.5655,2.5654,2.5689,2.5686,2.5804,2.5819,2.5721,2.5722,2.5723,0,2.5298,2.5333,2.5365,2.5387,2.5404,2.544,2.5463,2.5468,2.5491,2.5524,2.555,2.5588,2.5617,2.5678,2.5691,2.5725,2.5721,2.576,2.5726,2.5725,2.572,2.5718,2.5721,2.5766,2.5767,2.5768,2.5769,0,2.5385,2.5389,2.5423,2.5459,2.5486,2.5514,2.5541,2.556,2.5568,2.5595,2.5634,2.5658,2.5704,2.5741,2.5775,2.5788,2.578,2.578,2.579,2.5789,2.5785,2.5787,2.5672,2.5777,2.5776,2.5775,2.5775,2.5775,2.5446,2.5477,2.5504,2.5542,2.5563,2.5588,2.5618,2.5632,2.5665,2.5704,2.5704,2.5747,2.5772,2.5817,2.5834,2.5866,2.5854,2.5868,2.5872,2.5875,2.5878,2.5781,2.5873,2.5873,2.5872,2.5872,2.5872,0,2.5532,2.555,2.5585,2.5623,2.5652,2.5644,2.5673,2.5698,2.5736,2.5761,2.5791,2.5836,2.5872,2.5889,2.5924,2.5947,2.5944,2.5956,2.5954,2.5957,2.5887,2.5875,2.5958,2.5958,2.5958,2.5958,2.5958,2.5958,2.558,2.5632,2.5639,2.5701,2.5717,2.576,2.5777,2.58,2.582,2.5871,2.5902,2.5913,2.5935,2.5972,2.6004,2.6008,2.6021,2.6034,2.6036,2.5971,2.5962,2.5953,2.5942,2.6038,2.6038,2.6103,2.6104,2.6104]}]]